Regional Weather Roundup
Issued by NWS

Home | Current Version | Previous Version | Graphics & Text | Print | Product List | Glossary On
Versions: 1 2 3 4 5 6 7 8 9 10 11 12 13 14 15 16 17 18 19 20 21 22 23 24 25 26 27 28 29 30 31 32 33 34 35 36 37 38 39 40 41 42 43 44 45 46 47 48 49 50
000
ASUS43 KLSX 141710
RWRMO

WEATHER SUMMARY FOR MISSOURI
NATIONAL WEATHER SERVICE SPRINGFIELD MO
1100 AM CST SUN FEB 14 2016

NOTE: "FAIR" INDICATES FEW OR NO CLOUDS BELOW 12,000 FEET WITH NO
       SIGNIFICANT WEATHER AND/OR OBSTRUCTIONS TO VISIBILITY.
       CURRENT SKY AND/OR WEATHER CONDITIONS ARE NOT AVAILABLE FOR
       CHILLICOTHE AND FARMINGTON.

MOZ001>031-035>038-043-044-053-054-141800-
...NORTHERN AND WESTERN MISSOURI...

CITY           SKY/WX    TMP DP  RH WIND       PRES   REMARKS
KANSAS CTY INT PTSUNNY   37  20  50 SW13      29.94F WCI  29
KANSAS C DTWN  CLOUDY    37  21  52 S9        29.95F
LEE`S SUMMIT   PTSUNNY   35  24  64 S14       29.95F WCI  26
ST JOSEPH      CLOUDY    34  17  50 SW12      29.93F WCI  25
CHILLICOTHE      N/A     28  21  75 S12       29.98F WCI  18
KIRKSVILLE     CLOUDY    22  17  81 SE22      29.98F WCI   6

$$
MOZ066>068-077>081-088>096-101>105-141800-
...SOUTHWEST MISSOURI...

CITY           SKY/WX    TMP DP  RH WIND       PRES   REMARKS
SPRINGFIELD    CLOUDY    27  22  81 S18       29.99F WCI  14
JOPLIN         CLOUDY    39  32  76 S8        29.99F

$$
MOZ032>034-039>042-045>050-055>058-069>072-141800-
...CENTRAL MISSOURI...

CITY           SKY/WX    TMP DP  RH WIND       PRES   REMARKS
COLUMBIA       CLOUDY    25  23  92 SE13      30.01F WCI  14
JEFFERSON CITY CLOUDY    27  23  85 S16       30.05F WCI  15
ROLLA          CLOUDY    24  23  96 S15       30.01F FOG     WCI  11
SEDALIA        CLOUDY    31  25  78 S16       30.00F WCI  20
WHITEMAN AFB   CLOUDY    30  27  88 S13       29.97F WCI  20
WARRENSBURG    CLOUDY    32  28  86 S9        29.99S WCI  24
OSAGE BEACH    CLOUDY    27  21  80 CALM      30.03F

$$
MOZ051-052-059>065-141800-
...EAST CENTRAL MISSOURI...

CITY           SKY/WX    TMP DP  RH WIND       PRES   REMARKS
ST LOUIS INTL  LGT SNOW  23  18  80 SE15      30.10F VSB 1   WCI  10
SPIRIT OF STL  LGT SNOW  23  18  81 SE8       30.11F WCI  14
ST CHARLES     LGT SNOW  22  20  92 SE15      30.12F VSB 3/4 WCI   9

$$
MOZ072>076-082>087-097>100-106>115-141800-
...SOUTH CENTRAL AND SOUTHEAST MISSOURI...

CITY           SKY/WX    TMP DP  RH WIND       PRES   REMARKS
CAPE GIRARDEAU FRZ RAIN  26  23  88 SE13      30.17S FOG     WCI  15
FARMINGTON     MIX PCPN  23  21  92 S16       30.10F WCI  10
POPLAR BLUFF   FRZ RAIN  28  24  85 E7        30.16F FOG     WCI  21
WEST PLAINS    CLOUDY    26  21  81 SE7       30.08R HAZE    WCI  18

$$



USA.gov is the U.S. government's official web portal to all federal, state and local government web resources and services.